When you browse on this site, cookies collect data to enhance your experience and personalize the content and advertising you see.
Visit our Privacy Policy to learn more. By continuing to use the site, you agree to this use of cookies and data.
  • In Italy
  • List of Countries
  • For 7 days
  • Water Temperature
  • Satellite Maps
  • Weather Map
  • Weather Widgets
  • user-avatar
    Login

    Hourly Weather Cygany

    Today, 20 April, Saturday

    Time Temperature Precipitation Wind Pressure Humidity
    00:00 +3°C° 0 mm 2 mps 764 mmHg 66%
    01:00 +2°C° 0 mm 3 mps 764 mmHg 72%
    02:00 +2°C° 0 mm 3 mps 764 mmHg 75%
    03:00 +3°C° 0 mm 2 mps 764 mmHg 78%
    04:00 +3°C° 0 mm 2 mps 764 mmHg 82%
    05:00 +5°C° 0 mm 2 mps 764 mmHg 78%
    06:00 +5°C° 0 mm 3 mps 764 mmHg 74%
    07:00 +8°C° 0 mm 3 mps 764 mmHg 69%
    08:00 +10°C° 0 mm 3 mps 764 mmHg 62%
    09:00 +12°C° 0 mm 4 mps 764 mmHg 56%
    10:00 +14°C° 0 mm 4 mps 764 mmHg 49%
    11:00 +15°C° 0 mm 4 mps 764 mmHg 46%
    12:00 +15°C° 0 mm 5 mps 763 mmHg 43%
    13:00 +16°C° 0 mm 5 mps 763 mmHg 40%
    14:00 +15°C° 0 mm 5 mps 763 mmHg 41%
    15:00 +14°C° 0 mm 5 mps 763 mmHg 42%
    16:00 +14°C° 0 mm 5 mps 762 mmHg 43%
    17:00 +12°C° 0 mm 4 mps 762 mmHg 49%
    18:00 +10°C° 0 mm 4 mps 762 mmHg 55%
    19:00 +8°C° 0 mm 3 mps 762 mmHg 61%
    20:00 +7°C° 0 mm 3 mps 762 mmHg 64%
    21:00 +5°C° 0 mm 3 mps 762 mmHg 66%
    22:00 +5°C° 0 mm 2 mps 762 mmHg 68%
    23:00 +5°C° 0 mm 2 mps 761 mmHg 68%

    Tomorrow, 21 April, Sunday

    Time Temperature Precipitation Wind Pressure Humidity
    00:00 +5°C° 0 mm 2 mps 761 mmHg 68%
    01:00 +4°C° 0 mm 2 mps 761 mmHg 68%
    02:00 +4°C° 0 mm 2 mps 761 mmHg 68%
    03:00 +4°C° 0 mm 2 mps 760 mmHg 67%
    04:00 +4°C° 0 mm 2 mps 760 mmHg 67%
    05:00 +5°C° 0 mm 2 mps 760 mmHg 63%
    06:00 +7°C° 0 mm 2 mps 760 mmHg 59%
    07:00 +8°C° 0 mm 2 mps 759 mmHg 55%
    08:00 +10°C° 0 mm 2 mps 759 mmHg 51%
    09:00 +13°C° 0 mm 2 mps 759 mmHg 47%
    10:00 +15°C° 0 mm 2 mps 759 mmHg 42%
    11:00 +16°C° 0 mm 2 mps 758 mmHg 41%
    12:00 +17°C° 0 mm 2 mps 758 mmHg 39%
    13:00 +18°C° 0 mm 2 mps 758 mmHg 38%
    14:00 +17°C° 0 mm 3 mps 757 mmHg 42%
    15:00 +15°C° 0 mm 4 mps 757 mmHg 47%
    16:00 +15°C° 0 mm 5 mps 757 mmHg 51%
    17:00 +13°C° 0 mm 4 mps 757 mmHg 59%
    18:00 +11°C° 0 mm 3 mps 756 mmHg 66%
    19:00 +9°C° 0 mm 3 mps 756 mmHg 73%
    20:00 +8°C° 0 mm 3 mps 756 mmHg 77%
    21:00 +7°C° 0 mm 3 mps 757 mmHg 82%
    22:00 +5°C° 0 mm 3 mps 757 mmHg 86%
    23:00 +5°C° 0 mm 2 mps 757 mmHg 83%

    Day after tomorrow, 22 April, Monday

    Time Temperature Precipitation Wind Pressure Humidity
    00:00 +5°C° 0 mm 2 mps 756 mmHg 80%
    01:00 +4°C° 0 mm 2 mps 756 mmHg 77%
    02:00 +4°C° 0 mm 2 mps 756 mmHg 77%
    03:00 +3°C° 0 mm 3 mps 756 mmHg 77%
    04:00 +3°C° 0 mm 3 mps 756 mmHg 78%
    05:00 +4°C° 0 mm 3 mps 756 mmHg 78%
    06:00 +5°C° 0 mm 3 mps 756 mmHg 78%
    07:00 +8°C° 0 mm 3 mps 757 mmHg 78%
    08:00 +10°C° 0 mm 4 mps 757 mmHg 69%
    09:00 +12°C° 0 mm 4 mps 757 mmHg 59%
    10:00 +14°C° 0 mm 5 mps 757 mmHg 50%
    11:00 +15°C° 0 mm 5 mps 757 mmHg 49%
    12:00 +16°C° 0 mm 5 mps 757 mmHg 48%
    13:00 +17°C° 0 mm 6 mps 757 mmHg 48%
    14:00 +17°C° 0 mm 5 mps 757 mmHg 49%
    15:00 +17°C° 0 mm 5 mps 756 mmHg 50%
    16:00 +16°C° 0 mm 5 mps 756 mmHg 52%
    17:00 +15°C° 0 mm 5 mps 756 mmHg 58%
    18:00 +14°C° 0 mm 4 mps 756 mmHg 63%
    19:00 +12°C° 0 mm 4 mps 756 mmHg 69%
    20:00 +12°C° 0 mm 4 mps 757 mmHg 68%
    21:00 +11°C° 0 mm 4 mps 757 mmHg 67%
    22:00 +9°C° 0 mm 5 mps 757 mmHg 66%
    23:00 +9°C° 0 mm 5 mps 757 mmHg 65%

    23 April, Tuesday

    Time Temperature Precipitation Wind Pressure Humidity
    00:00 +8°C° 0 mm 5 mps 757 mmHg 63%
    01:00 +8°C° 0 mm 5 mps 757 mmHg 62%
    02:00 +7°C° 0 mm 5 mps 757 mmHg 61%
    03:00 +7°C° 0 mm 5 mps 757 mmHg 60%
    04:00 +7°C° 0 mm 6 mps 757 mmHg 60%
    05:00 +6°C° 0 mm 7 mps 757 mmHg 58%
    06:00 +7°C° 0 mm 8 mps 756 mmHg 57%
    07:00 +8°C° 0 mm 9 mps 756 mmHg 55%
    08:00 +10°C° 0 mm 9 mps 756 mmHg 52%
    09:00 +12°C° 0 mm 10 mps 756 mmHg 48%
    10:00 +13°C° 0 mm 10 mps 756 mmHg 45%
    11:00 +14°C° 0 mm 10 mps 755 mmHg 43%
    12:00 +16°C° 0 mm 10 mps 755 mmHg 42%
    13:00 +16°C° 0 mm 10 mps 755 mmHg 41%
    14:00 +16°C° 0 mm 10 mps 754 mmHg 42%
    15:00 +16°C° 0 mm 10 mps 754 mmHg 43%
    16:00 +16°C° 0 mm 10 mps 753 mmHg 44%
    17:00 +15°C° 0 mm 9 mps 753 mmHg 48%
    18:00 +13°C° 0 mm 8 mps 753 mmHg 51%
    19:00 +11°C° 0 mm 7 mps 753 mmHg 55%
    20:00 +11°C° 0 mm 7 mps 753 mmHg 54%
    21:00 +11°C° 0 mm 8 mps 753 mmHg 53%
    22:00 +11°C° 0 mm 8 mps 753 mmHg 53%
    23:00 +11°C° 0 mm 8 mps 752 mmHg 53%

    24 April, Wednesday

    Time Temperature Precipitation Wind Pressure Humidity
    00:00 +11°C° 0 mm 8 mps 752 mmHg 54%
    01:00 +11°C° 0 mm 8 mps 752 mmHg 54%
    02:00 +10°C° 0 mm 8 mps 752 mmHg 56%
    03:00 +10°C° 0 mm 8 mps 751 mmHg 58%
    04:00 +10°C° 0 mm 8 mps 751 mmHg 59%
    05:00 +10°C° 0.1 mm 8 mps 751 mmHg 61%
    06:00 +10°C° 0.1 mm 9 mps 751 mmHg 63%
    07:00 +10°C° 0.1 mm 9 mps 751 mmHg 65%
    08:00 +11°C° 0 mm 9 mps 751 mmHg 63%
    09:00 +13°C° 0 mm 9 mps 751 mmHg 61%
    10:00 +14°C° 0 mm 10 mps 751 mmHg 60%
    11:00 +16°C° 0 mm 10 mps 751 mmHg 59%
    12:00 +17°C° 0 mm 9 mps 751 mmHg 58%
    13:00 +18°C° 0 mm 9 mps 751 mmHg 57%
    14:00 +18°C° 0 mm 8 mps 751 mmHg 57%
    15:00 +20°C° 0 mm 7 mps 751 mmHg 58%
    16:00 +20°C° 0 mm 6 mps 751 mmHg 59%
    17:00 +19°C° 0 mm 6 mps 751 mmHg 62%
    18:00 +17°C° 0 mm 6 mps 751 mmHg 64%
    19:00 +16°C° 0 mm 5 mps 751 mmHg 67%
    20:00 +16°C° 0 mm 6 mps 751 mmHg 68%
    21:00 +15°C° 0 mm 6 mps 751 mmHg 69%
    22:00 +14°C° 0 mm 6 mps 751 mmHg 70%
    23:00 +14°C° 0 mm 6 mps 752 mmHg 73%

    25 April, Thursday

    Time Temperature Precipitation Wind Pressure Humidity
    00:00 +13°C° 0 mm 5 mps 752 mmHg 76%
    01:00 +12°C° 0 mm 5 mps 752 mmHg 78%
    02:00 +12°C° 0 mm 5 mps 752 mmHg 80%
    03:00 +12°C° 0 mm 5 mps 752 mmHg 81%
    04:00 +10°C° 0 mm 5 mps 752 mmHg 82%
    05:00 +12°C° 0 mm 5 mps 752 mmHg 80%
    06:00 +13°C° 0 mm 6 mps 752 mmHg 78%
    07:00 +14°C° 0 mm 6 mps 752 mmHg 75%
    08:00 +16°C° 0 mm 6 mps 752 mmHg 71%
    09:00 +19°C° 0 mm 6 mps 752 mmHg 66%
    10:00 +21°C° 0 mm 6 mps 752 mmHg 61%
    11:00 +22°C° 0 mm 6 mps 752 mmHg 58%
    12:00 +23°C° 0 mm 6 mps 751 mmHg 55%
    13:00 +24°C° 0 mm 6 mps 751 mmHg 51%
    14:00 +23°C° 0 mm 5 mps 751 mmHg 54%
    15:00 +23°C° 0 mm 4 mps 751 mmHg 56%
    16:00 +22°C° 0 mm 3 mps 750 mmHg 58%
    17:00 +22°C° 0 mm 3 mps 750 mmHg 61%
    18:00 +21°C° 0 mm 3 mps 750 mmHg 63%
    19:00 +20°C° 0 mm 3 mps 750 mmHg 66%
    20:00 +19°C° 0 mm 3 mps 750 mmHg 68%
    21:00 +19°C° 0 mm 4 mps 750 mmHg 70%
    22:00 +18°C° 0 mm 4 mps 750 mmHg 73%
    23:00 +17°C° 0 mm 4 mps 750 mmHg 77%
    Show more